Asahikawa Air Base, Japan

9:56 AM JST on December 18, 2014 (GMT +0900)
Asahikawa | Change Station
CLOSE
Current Station
Airport
Location: Asahikawa Airport,
Elevation: 682 ft
Nearby Weather Stations

Elev 682 ft 43.67 °N, 142.45 °E | Updated 37 minutes ago

Light Snow Showers
Light Showers Snow
28 °F
Feels Like 14 °F
N
25
Wind Variable Wind from NNW

Today
High -- | Low -- °F
--% Chance of Precip.
Yesterday
High -- | Low -- °F
Precip. -- in
6:59 AM 3:54 PM
Waning Crescent, 18% visible
Pressure 29.50 in
Visibility 3.1 miles
Clouds Few 700 ft
Scattered Clouds 1200 ft
Mostly Cloudy 2000 ft
Windchill 14 °F
Dew Point 25 °F
Humidity 86%
Rainfall 0.00 in
Snow Depth Not available.
UV 0 out of 12
Pollen Not available.
Air Quality Not available.
Flu Activity Not available.
SPECI RJEC 180019Z 34022KT 5000 -SHSN FEW007 SCT012 BKN020 M02/M04 Q0999 RMK 1ST007 3ST012 5CU020 A2951

More Conditions Fewer Conditions

Pressure 29.50 in
Visibility 3.1 miles
Clouds Few 700 ft
Scattered Clouds 1200 ft
Mostly Cloudy 2000 ft
Windchill 14 °F
Dew Point 25 °F
Humidity 86%
Rainfall 0.00 in
Snow Depth Not available.
UV 0 out of 12
Pollen Not available.
Air Quality Not available.
Flu Activity Not available.
SPECI RJEC 180019Z 34022KT 5000 -SHSN FEW007 SCT012 BKN020 M02/M04 Q0999 RMK 1ST007 3ST012 5CU020 A2951

More Conditions Fewer Conditions

10-Day Weather Forecast

Almanac

Astronomy

Dec. 18, 2014 Rise Set
Actual Time
Civil Twilight
Nautical Twilight
Astronomical Twilight
Moon
Length of Visible Light
Length of Day
Tomorrow will be .
, % of the Moon is Illuminated

Today's Extremes

Country Highs Country Lows

Community

WunderPhotos

Upload Photos

1,778,837 photos uploaded!

WunderBlogs® & News

Nearby

Air Quality

  Air Quality AQ Index Pollutant
Not available.

Snow Depth

Station Depth Elevation

Earthquake Activity

City Distance Mag. Time & Date
Minimum magnitude displayed is 2.5.

Coastal Water Temperatures

Place Temperature

Nearby Weather Stations